SCP
0 0 0 0 0 0 0 0 0 0 0 0 0 0 0 0 0 0 0 0 0 0 0 0 0 0 0 0 0 0 0 0 0 0 0 0 0 0 0 0 0 0 0 0
0 0 0 0 0 0 0 0 0 0 0 0 0 0 0 0 0 0 0 0 0 0 0 0 0 0 0 0 0 0 0 0 0 0 0 0 0 0 0 0 0 0 0 0
0 0 0 0 0 0 0 0 0 0 0 0 0 0 0 0 0 0 0 0 0 0 0 0 0 0 0 0 0 0 0 0 0 0 0 0 0 0 0 0 0 0 0 0
0 0 0 0 0 0 0 0 0 0 0 0 0 0 0 0 0 0 0 0 0 0 0 0 0 0 0 -0 0 0 0 0 0 0 0 0 0 0 0 0 0 0 0 0
0 0 0 0 0 0 0 0 0 0 0 0 0 0 0 0 0 0 0 0 0 0 0 0 0 0 0 0 0 0 0 0 -0 0 0 0 0 0 0 0 0 0 0 0
0 0 0 0 0 0 0 0 0 0 0 -0 0 0 0 0 0 0 0 0 0 0 0 0 0 0 0 0 0 0 0 -0 -0 0 0 0 0 0 0 0 0 0 0 0
0 0 0 0 0 0 0 0 0 0 0 0 0 0 0 0 0 0 0 0 0 0 0 0 0 0 0 0 0 0 0 0 0 0 0 0 0 0 0 0 0 0 0 0
0 0 0 0 0 0 0 0 0 0 0 0 0 0 0 0 0 0 0 0 0 0 0 0 0 0 0 0 0 -0 -0 0 0 0 0 0 0 0 0 0 0 0 0 0
0 0 0 0 0 0 0 0 0 0 0 0 0 0 0 0 0 0 0 0 0 0 0 0 0 0 0 0 0 0 0 0 0 0 0 0 -0 -0 -0 -0 0 0 0 0
0 0 0 0 0 0 0 0 0 0 0 0 0 0 0 0 0 0 0 0 0 0 0 0 0 0 0 0 -0 -0 -0 -0 0 0 0 0 0 -0 -0 -0 -0 0 0 0
0 0 0 0 0 0 0 0 0 0 0 0 0 0 0 0 0 0 0 0 0 0 0 0 0 0 0 0 0 0 0 0 0 0 0 0 0 0 0 -0 0 0 0 0
0 0 0 0 0 0 0 0 0 0 0 0 0 0 0 0 0 0 0 0 0 0 0 -0 -0 -0 -0 0 0 0 0 0 0 0 0 0 0 0 0 0 -0 0 0 0
0 0 0 0 0 0 0 0 0 0 0 0 0 0 0 0 0 0 0 0 0 0 0 -0 0 0 0 0 0 0 0 0 0 0 0 0 0 0 0 0 0 0 -0 -0
0 0 0 0 0 0 0 0 0 0 0 0 0 0 0 0 0 0 0 0 0 0 0 0 0 0 0 0 0 0 0 0 0 0 0 -0 -0 0 0 0 0 0 0 0
0 0 0 0 0 0 0 0 0 0 0 0 0 0 0 0 0 0 0 0 0 0 0 0 0 -0 0 0 0 0 0 0 0 0 0 -0 -0 -0 -0 -0 -0 -0 0 0
0 0 0 0 0 0 0 0 0 0 0 0 0 0 0 0 0 0 0 0 0 0 0 0 0 -0 0 0 0 0 0 0 0 0 0 0 0 0 -0 -0 -0 0 0 0
0 0 0 0 0 0 0 0 0 0 0 0 0 0 0 0 0 0 0 0 0 0 0 0 0 0 0 0 0 0 0 0 0 0 -0 -0 -0 -0 0 0 0 0 0 0
0 0 0 0 0 0 0 0 0 0 0 0 0 0 0 0 0 0 0 0 0 0 0 0 0 0 0 0 0 0 0 0 0 0 0 0 0 0 0 0 0 0 0 0
0 0 0 0 0 0 0 0 0 0 0 0 0 0 0 0 0 0 0 0 0 0 -0 0 0 0 0 0 0 0 0 0 0 0 0 0 0 0 0 0 0 0 0 0
0 0 0 0 0 0 0 0 0 0 0 0 0 0 0 0 0 0 0 0 0 0 0 0 0 0 0 0 0 0 0 0 0 0 0 0 0 0 0 0 0 0 0 0
0 0 0 0 0 0 0 0 0 0 0 0 0 0 0 0 0 0 0 0 0 0 0 0 0 0 0 0 0 0 0 0 0 0 0 0 0 0 0 0 0 0 0 0
0 0 0 0 0 0 0 0 0 0 0 0 0 0 0 0 0 0 0 0 0 0 0 0 0 0 0 0 0 0 0 0 0 0 0 0 0 0 0 0 0 0 0 0
0 0 0 0 0 0 0 0 0 0 0 0 0 0 0 0 0 0 0 0 0 0 0 0 0 0 0 0 0 0 0 0 0 0 0 0 0 0 0 0 0 0 0 0
0 0 0 0 0 0 0 0 0 0 0 0 0 0 0 0 0 0 0 0 0 0 0 0 0 0 0 0 0 0 0 0 0 0 0 0 0 0 0 0 0 0 0 0
0 0 0 0 0 0 0 0 0 0 0 0 0 0 0 0 0 0 0 0 0 0 0 0 0 0 0 0 0 0 0 0 0 0 0 0 0 0 0 0 0 0 0 0
0 0 0 0 0 0 0 0 0 0 0 0 0 0 0 0 0 0 0 0 0 0 0 0 0 0 0 0 0 0 0 0 0 0 0 0 0 0 0 0 0 0 0 0
0 0 0 0 0 0 0 0 0 0 0 0 0 0 0 0 0 0 0 0 0 0 0 0 0 0 0 0 0 0 0 0 0 0 0 0 0 0 0 0 0 0 0 0
Wind_Speed_500mb
21 27 14 42 29 22 37 44 17 35 26 54 49 41 62 72 79 71 77 78 75 72 82 79 69 63 61 50 43 38 33 40 40 24 27 31 32 28 26 47 62 58 52 38
10 23 23 39 43 36 50 47 47 58 64 66 92 81 61 68 66 72 74 76 77 76 73 70 66 60 56 44 40 34 33 37 36 32 18 21 28 24 22 32 45 46 31 70
12 5 14 24 20 24 13 14 18 24 33 27 24 31 41 59 75 70 70 81 76 77 68 71 67 60 50 39 37 34 33 34 35 27 23 18 17 19 19 21 22 23 48 76
8 9 3 11 3 10 15 14 34 22 30 40 42 60 69 70 53 53 80 83 73 67 63 60 56 46 35 29 29 30 34 34 30 24 22 18 13 16 18 20 26 33 41 32
3 4 20 18 6 12 15 16 28 42 32 42 46 50 45 34 42 72 71 70 63 53 49 50 48 40 28 20 19 24 29 28 26 26 17 16 16 19 21 31 40 43 47 50
4 5 13 10 7 16 9 11 13 36 24 24 16 13 16 67 70 66 63 63 52 45 45 44 40 34 28 25 23 23 22 20 24 23 12 14 18 26 30 34 45 56 64 64
7 9 20 27 15 8 10 12 21 38 14 9 7 19 57 66 64 59 58 56 38 42 45 42 35 27 21 20 18 18 17 14 14 10 11 17 27 37 44 56 65 69 70 71
9 8 22 31 19 17 12 6 17 22 29 46 54 45 50 58 55 57 53 46 41 42 39 35 35 26 18 14 12 11 9 6 1 6 13 25 36 47 58 66 72 78 82 79
27 20 9 58 29 45 13 22 42 51 64 62 46 41 54 48 46 49 41 37 37 35 35 28 29 29 24 24 19 16 13 13 14 16 26 35 45 56 65 71 77 76 76 76
4 21 51 73 80 79 70 78 83 68 60 43 43 40 46 34 40 39 34 25 24 29 33 28 25 25 29 32 30 33 37 36 32 31 33 43 52 58 61 62 66 66 64 62
16 39 44 86 84 79 67 55 47 41 37 37 43 49 37 26 34 32 26 10 14 21 28 32 35 36 36 34 33 40 44 43 41 38 38 41 43 43 44 49 50 52 54 51
22 32 31 44 55 46 35 46 37 39 51 48 47 46 36 31 27 32 24 5 6 17 25 34 41 45 38 35 35 38 35 33 34 33 30 28 33 38 33 27 24 27 28 26
73 50 58 76 68 69 58 65 69 59 61 51 45 43 40 38 33 36 27 19 10 18 20 21 20 20 21 25 29 26 29 34 28 20 15 13 13 14 15 21 24 24 27 30
106 82 70 96 66 68 58 57 55 58 57 57 59 56 53 53 52 52 37 24 23 23 22 20 13 9 8 8 8 8 8 11 12 13 13 13 15 15 13 11 17 24 26 25
76 78 98 93 80 80 75 77 81 81 80 70 62 60 55 56 58 56 43 36 41 38 33 28 21 11 4 3 5 7 8 8 9 10 10 12 13 14 16 17 19 17 19 23
70 83 94 100 105 98 90 91 90 81 77 66 60 56 49 48 52 51 50 51 59 60 48 40 31 21 15 10 11 14 16 15 15 15 14 13 12 12 12 13 16 20 19 19
73 81 75 79 86 82 84 85 80 73 68 61 53 45 43 44 47 53 57 63 65 67 58 50 40 34 29 23 21 22 22 22 21 18 14 12 11 10 11 14 15 15 17 21
112 120 92 99 86 80 85 79 64 57 54 49 48 43 45 49 54 54 51 55 66 68 71 67 56 48 43 36 31 30 31 28 24 19 16 15 14 16 17 19 21 23 24 26
108 109 102 98 82 71 70 66 55 44 42 39 41 43 43 45 46 44 41 51 64 67 67 65 67 62 55 47 42 39 36 34 29 24 24 25 27 29 30 30 29 29 29 29
77 76 68 62 51 52 50 39 35 32 32 37 39 42 43 40 36 36 40 48 55 62 56 56 56 61 59 56 52 48 45 42 40 35 33 31 32 35 37 37 35 34 34 34
54 50 48 42 41 33 27 26 25 20 23 33 34 35 34 31 33 36 45 51 40 45 54 53 51 54 55 56 55 52 49 47 45 44 40 35 35 36 36 35 35 35 35 37
37 39 37 34 26 22 24 18 19 22 24 28 30 33 35 30 33 38 42 44 35 40 45 51 48 47 46 51 54 53 49 47 44 42 39 35 34 32 31 31 31 31 34 36
36 38 36 33 29 24 18 14 19 20 20 23 23 25 27 24 26 31 27 28 31 34 36 42 41 41 42 44 47 49 47 43 38 36 35 36 33 29 27 26 28 31 34 35
47 44 37 34 28 21 15 12 13 15 16 16 16 17 15 13 13 13 12 13 20 26 31 32 36 36 35 36 36 35 35 35 36 35 33 29 25 24 25 27 29 32 34 34
49 43 37 32 24 17 12 10 7 6 7 5 2 0 3 8 8 10 8 8 11 19 24 25 26 28 28 27 26 27 29 29 27 24 22 22 22 22 23 25 29 31 32 32
44 38 31 27 20 13 9 10 6 5 6 10 9 8 11 16 14 16 21 17 19 21 21 20 21 21 21 21 20 20 20 20 21 21 21 20 20 23 27 29 30 31 30 28
40 35 31 27 20 14 12 10 9 13 17 22 27 25 24 25 29 27 20 19 23 25 24 24 22 20 19 20 20 20 20 20 19 19 20 23 25 27 28 29 29 28 27 25
Wind_Direction_500mb
256 277 247 267 254 205 215 227 223 262 265 275 287 300 296 296 299 306 312 315 320 319 319 320 319 316 312 295 295 304 300 308 308 289 287 283 275 267 243 246 234 245 222 211
263 260 277 275 263 240 239 242 253 259 271 271 278 281 285 292 302 311 312 316 318 321 325 327 323 321 315 301 296 295 296 304 311 298 280 273 270 267 258 232 245 229 219 184
266 5 312 284 252 206 190 216 217 222 245 277 286 289 291 302 305 306 312 318 321 331 330 324 317 312 309 304 296 290 296 303 307 306 284 264 261 268 254 226 239 235 206 188
277 357 12 253 151 172 203 237 207 246 266 275 279 291 300 309 306 310 320 325 326 327 324 328 332 332 318 303 298 298 303 306 308 299 282 267 235 238 234 198 188 189 188 178
241 203 298 290 165 151 177 277 211 222 249 265 294 305 308 335 321 322 326 327 324 324 329 330 336 342 338 324 308 305 311 314 308 292 276 259 221 210 195 190 174 171 166 176
79 178 241 227 180 166 158 291 191 187 218 252 313 336 305 329 331 332 332 329 327 334 333 329 333 332 336 332 330 323 313 312 299 285 262 227 207 185 175 175 164 160 153 148
204 256 274 250 211 170 85 253 192 193 232 268 198 265 313 326 335 336 336 338 338 339 341 343 346 338 336 329 324 316 314 315 295 276 236 201 182 164 159 153 146 141 137 132
153 201 281 166 131 183 214 181 189 240 260 311 313 310 321 325 335 339 345 351 352 352 353 354 358 358 352 339 350 356 351 335 232 183 188 177 168 158 152 150 145 138 133 127
191 209 229 191 219 220 239 266 273 285 297 306 300 309 321 326 342 345 351 357 359 5 6 12 18 29 34 44 38 41 58 83 107 133 153 156 153 151 145 144 138 136 135 137
109 236 244 251 245 253 262 274 286 284 289 292 286 309 319 320 341 349 355 6 26 42 44 45 47 50 55 58 68 78 81 82 92 112 127 135 137 136 138 141 142 143 138 133
265 269 264 268 260 265 272 277 275 269 274 290 284 300 304 305 333 345 352 22 65 66 68 68 70 70 71 77 84 87 93 98 101 100 103 110 118 122 125 129 138 142 144 149
244 218 230 264 279 278 243 269 281 272 280 289 293 295 287 286 298 329 332 276 78 107 107 97 91 85 78 76 70 67 80 96 106 112 121 131 137 136 135 131 135 144 152 159
243 258 254 267 274 274 265 275 284 280 285 284 283 287 284 284 280 293 298 269 246 168 140 125 108 110 116 108 112 108 101 102 102 107 118 127 134 136 146 151 150 148 146 147
243 250 262 259 258 273 274 279 281 281 281 278 282 284 281 274 279 275 266 251 226 193 175 164 155 114 104 136 162 173 150 143 147 150 149 148 146 145 143 161 164 164 165 166
243 247 253 262 265 269 272 275 277 282 284 284 285 282 276 272 269 265 253 240 232 219 212 215 214 195 163 152 175 168 160 166 159 156 151 147 147 152 163 169 172 180 190 194
252 255 259 259 264 267 271 274 275 278 284 287 286 281 276 270 263 257 247 235 229 226 219 220 218 209 225 227 215 208 200 190 185 183 176 170 172 180 188 194 201 202 204 210
251 253 248 252 259 265 272 283 279 280 282 283 282 284 278 270 261 252 243 233 230 228 228 228 225 219 236 241 233 220 218 216 212 209 204 201 203 208 219 229 233 229 223 224
254 261 261 266 268 272 276 279 278 278 278 289 285 278 269 266 264 258 252 241 234 231 226 226 228 228 233 241 241 230 224 221 224 223 231 249 259 257 251 247 245 244 242 243
253 258 266 268 271 272 273 271 271 277 281 283 279 276 276 269 265 259 252 243 234 234 228 229 230 232 236 236 234 232 232 235 237 240 244 250 258 265 268 268 261 251 246 246
255 256 261 261 266 261 259 263 269 270 275 275 275 272 273 272 264 256 252 251 244 239 238 234 234 231 231 231 231 231 232 233 235 237 240 247 256 260 260 261 258 251 247 247
248 245 248 254 248 245 251 252 254 266 271 266 267 273 277 268 260 259 256 255 249 240 233 230 228 227 228 229 228 230 231 232 232 234 238 247 255 257 256 255 250 245 241 244
225 228 228 222 218 219 228 244 268 276 281 281 279 275 270 267 263 260 260 262 253 244 235 227 225 222 223 224 226 227 228 228 231 233 238 254 265 262 254 249 244 241 245 248
216 208 207 210 215 218 231 269 288 290 293 293 282 276 273 269 260 258 255 257 252 243 228 217 217 217 219 221 221 223 225 227 230 236 246 259 261 253 240 236 243 251 255 256
207 199 205 217 221 225 246 273 287 304 307 296 284 274 263 256 251 251 242 236 237 230 213 209 210 211 214 215 216 218 221 224 227 238 249 247 235 232 241 249 255 259 261 263
199 197 206 216 218 225 244 255 269 306 325 3 31 264 226 199 176 163 186 185 182 185 191 200 204 205 202 201 203 207 214 225 234 232 224 225 233 243 255 267 272 271 270 267
199 201 200 201 202 209 218 231 211 155 125 117 113 126 132 138 145 135 134 129 143 148 154 163 169 172 177 188 202 213 216 215 216 221 230 243 259 270 273 275 276 274 269 262
196 197 194 194 185 196 206 201 166 144 133 122 113 111 112 118 126 134 135 139 141 143 145 148 153 162 171 176 183 192 203 217 232 248 260 266 272 277 279 278 275 270 263 252
Wind_Speed_850mb
21 27 14 42 29 22 37 44 17 35 26 54 49 41 62 72 79 71 77 78 75 72 82 79 69 63 61 50 43 38 33 40 40 24 27 31 32 28 26 47 62 58 52 38
10 23 23 39 43 36 50 47 47 58 64 66 92 81 61 68 66 72 74 76 77 76 73 70 66 60 56 44 40 34 33 37 36 32 18 21 28 24 22 32 45 46 31 70
12 5 14 24 20 24 13 14 18 24 33 27 24 31 41 59 75 70 70 81 76 77 68 71 67 60 50 39 37 34 33 34 35 27 23 18 17 19 19 21 22 23 48 76
8 9 3 11 3 10 15 14 34 22 30 40 42 60 69 70 53 53 80 83 73 67 63 60 56 46 35 29 29 30 34 34 30 24 22 18 13 16 18 20 26 33 41 32
3 4 20 18 6 12 15 16 28 42 32 42 46 50 45 34 42 72 71 70 63 53 49 50 48 40 28 20 19 24 29 28 26 26 17 16 16 19 21 31 40 43 47 50
4 5 13 10 7 16 9 11 13 36 24 24 16 13 16 67 70 66 63 63 52 45 45 44 40 34 28 25 23 23 22 20 24 23 12 14 18 26 30 34 45 56 64 64
7 9 20 27 15 8 10 12 21 38 14 9 7 19 57 66 64 59 58 56 38 42 45 42 35 27 21 20 18 18 17 14 14 10 11 17 27 37 44 56 65 69 70 71
9 8 22 31 19 17 12 6 17 22 29 46 54 45 50 58 55 57 53 46 41 42 39 35 35 26 18 14 12 11 9 6 1 6 13 25 36 47 58 66 72 78 82 79
27 20 9 58 29 45 13 22 42 51 64 62 46 41 54 48 46 49 41 37 37 35 35 28 29 29 24 24 19 16 13 13 14 16 26 35 45 56 65 71 77 76 76 76
4 21 51 73 80 79 70 78 83 68 60 43 43 40 46 34 40 39 34 25 24 29 33 28 25 25 29 32 30 33 37 36 32 31 33 43 52 58 61 62 66 66 64 62
16 39 44 86 84 79 67 55 47 41 37 37 43 49 37 26 34 32 26 10 14 21 28 32 35 36 36 34 33 40 44 43 41 38 38 41 43 43 44 49 50 52 54 51
22 32 31 44 55 46 35 46 37 39 51 48 47 46 36 31 27 32 24 5 6 17 25 34 41 45 38 35 35 38 35 33 34 33 30 28 33 38 33 27 24 27 28 26
73 50 58 76 68 69 58 65 69 59 61 51 45 43 40 38 33 36 27 19 10 18 20 21 20 20 21 25 29 26 29 34 28 20 15 13 13 14 15 21 24 24 27 30
106 82 70 96 66 68 58 57 55 58 57 57 59 56 53 53 52 52 37 24 23 23 22 20 13 9 8 8 8 8 8 11 12 13 13 13 15 15 13 11 17 24 26 25
76 78 98 93 80 80 75 77 81 81 80 70 62 60 55 56 58 56 43 36 41 38 33 28 21 11 4 3 5 7 8 8 9 10 10 12 13 14 16 17 19 17 19 23
70 83 94 100 105 98 90 91 90 81 77 66 60 56 49 48 52 51 50 51 59 60 48 40 31 21 15 10 11 14 16 15 15 15 14 13 12 12 12 13 16 20 19 19
73 81 75 79 86 82 84 85 80 73 68 61 53 45 43 44 47 53 57 63 65 67 58 50 40 34 29 23 21 22 22 22 21 18 14 12 11 10 11 14 15 15 17 21
112 120 92 99 86 80 85 79 64 57 54 49 48 43 45 49 54 54 51 55 66 68 71 67 56 48 43 36 31 30 31 28 24 19 16 15 14 16 17 19 21 23 24 26
108 109 102 98 82 71 70 66 55 44 42 39 41 43 43 45 46 44 41 51 64 67 67 65 67 62 55 47 42 39 36 34 29 24 24 25 27 29 30 30 29 29 29 29
77 76 68 62 51 52 50 39 35 32 32 37 39 42 43 40 36 36 40 48 55 62 56 56 56 61 59 56 52 48 45 42 40 35 33 31 32 35 37 37 35 34 34 34
54 50 48 42 41 33 27 26 25 20 23 33 34 35 34 31 33 36 45 51 40 45 54 53 51 54 55 56 55 52 49 47 45 44 40 35 35 36 36 35 35 35 35 37
37 39 37 34 26 22 24 18 19 22 24 28 30 33 35 30 33 38 42 44 35 40 45 51 48 47 46 51 54 53 49 47 44 42 39 35 34 32 31 31 31 31 34 36
36 38 36 33 29 24 18 14 19 20 20 23 23 25 27 24 26 31 27 28 31 34 36 42 41 41 42 44 47 49 47 43 38 36 35 36 33 29 27 26 28 31 34 35
47 44 37 34 28 21 15 12 13 15 16 16 16 17 15 13 13 13 12 13 20 26 31 32 36 36 35 36 36 35 35 35 36 35 33 29 25 24 25 27 29 32 34 34
49 43 37 32 24 17 12 10 7 6 7 5 2 0 3 8 8 10 8 8 11 19 24 25 26 28 28 27 26 27 29 29 27 24 22 22 22 22 23 25 29 31 32 32
44 38 31 27 20 13 9 10 6 5 6 10 9 8 11 16 14 16 21 17 19 21 21 20 21 21 21 21 20 20 20 20 21 21 21 20 20 23 27 29 30 31 30 28
40 35 31 27 20 14 12 10 9 13 17 22 27 25 24 25 29 27 20 19 23 25 24 24 22 20 19 20 20 20 20 20 19 19 20 23 25 27 28 29 29 28 27 25
Wind_Direction_850mb
256 277 247 267 254 205 215 227 223 262 265 275 287 300 296 296 299 306 312 315 320 319 319 320 319 316 312 295 295 304 300 308 308 289 287 283 275 267 243 246 234 245 222 211
263 260 277 275 263 240 239 242 253 259 271 271 278 281 285 292 302 311 312 316 318 321 325 327 323 321 315 301 296 295 296 304 311 298 280 273 270 267 258 232 245 229 219 184
266 5 312 284 252 206 190 216 217 222 245 277 286 289 291 302 305 306 312 318 321 331 330 324 317 312 309 304 296 290 296 303 307 306 284 264 261 268 254 226 239 235 206 188
277 357 12 253 151 172 203 237 207 246 266 275 279 291 300 309 306 310 320 325 326 327 324 328 332 332 318 303 298 298 303 306 308 299 282 267 235 238 234 198 188 189 188 178
241 203 298 290 165 151 177 277 211 222 249 265 294 305 308 335 321 322 326 327 324 324 329 330 336 342 338 324 308 305 311 314 308 292 276 259 221 210 195 190 174 171 166 176
79 178 241 227 180 166 158 291 191 187 218 252 313 336 305 329 331 332 332 329 327 334 333 329 333 332 336 332 330 323 313 312 299 285 262 227 207 185 175 175 164 160 153 148
204 256 274 250 211 170 85 253 192 193 232 268 198 265 313 326 335 336 336 338 338 339 341 343 346 338 336 329 324 316 314 315 295 276 236 201 182 164 159 153 146 141 137 132
153 201 281 166 131 183 214 181 189 240 260 311 313 310 321 325 335 339 345 351 352 352 353 354 358 358 352 339 350 356 351 335 232 183 188 177 168 158 152 150 145 138 133 127
191 209 229 191 219 220 239 266 273 285 297 306 300 309 321 326 342 345 351 357 359 5 6 12 18 29 34 44 38 41 58 83 107 133 153 156 153 151 145 144 138 136 135 137
109 236 244 251 245 253 262 274 286 284 289 292 286 309 319 320 341 349 355 6 26 42 44 45 47 50 55 58 68 78 81 82 92 112 127 135 137 136 138 141 142 143 138 133
265 269 264 268 260 265 272 277 275 269 274 290 284 300 304 305 333 345 352 22 65 66 68 68 70 70 71 77 84 87 93 98 101 100 103 110 118 122 125 129 138 142 144 149
244 218 230 264 279 278 243 269 281 272 280 289 293 295 287 286 298 329 332 276 78 107 107 97 91 85 78 76 70 67 80 96 106 112 121 131 137 136 135 131 135 144 152 159
243 258 254 267 274 274 265 275 284 280 285 284 283 287 284 284 280 293 298 269 246 168 140 125 108 110 116 108 112 108 101 102 102 107 118 127 134 136 146 151 150 148 146 147
243 250 262 259 258 273 274 279 281 281 281 278 282 284 281 274 279 275 266 251 226 193 175 164 155 114 104 136 162 173 150 143 147 150 149 148 146 145 143 161 164 164 165 166
243 247 253 262 265 269 272 275 277 282 284 284 285 282 276 272 269 265 253 240 232 219 212 215 214 195 163 152 175 168 160 166 159 156 151 147 147 152 163 169 172 180 190 194
252 255 259 259 264 267 271 274 275 278 284 287 286 281 276 270 263 257 247 235 229 226 219 220 218 209 225 227 215 208 200 190 185 183 176 170 172 180 188 194 201 202 204 210
251 253 248 252 259 265 272 283 279 280 282 283 282 284 278 270 261 252 243 233 230 228 228 228 225 219 236 241 233 220 218 216 212 209 204 201 203 208 219 229 233 229 223 224
254 261 261 266 268 272 276 279 278 278 278 289 285 278 269 266 264 258 252 241 234 231 226 226 228 228 233 241 241 230 224 221 224 223 231 249 259 257 251 247 245 244 242 243
253 258 266 268 271 272 273 271 271 277 281 283 279 276 276 269 265 259 252 243 234 234 228 229 230 232 236 236 234 232 232 235 237 240 244 250 258 265 268 268 261 251 246 246
255 256 261 261 266 261 259 263 269 270 275 275 275 272 273 272 264 256 252 251 244 239 238 234 234 231 231 231 231 231 232 233 235 237 240 247 256 260 260 261 258 251 247 247
248 245 248 254 248 245 251 252 254 266 271 266 267 273 277 268 260 259 256 255 249 240 233 230 228 227 228 229 228 230 231 232 232 234 238 247 255 257 256 255 250 245 241 244
225 228 228 222 218 219 228 244 268 276 281 281 279 275 270 267 263 260 260 262 253 244 235 227 225 222 223 224 226 227 228 228 231 233 238 254 265 262 254 249 244 241 245 248
216 208 207 210 215 218 231 269 288 290 293 293 282 276 273 269 260 258 255 257 252 243 228 217 217 217 219 221 221 223 225 227 230 236 246 259 261 253 240 236 243 251 255 256
207 199 205 217 221 225 246 273 287 304 307 296 284 274 263 256 251 251 242 236 237 230 213 209 210 211 214 215 216 218 221 224 227 238 249 247 235 232 241 249 255 259 261 263
199 197 206 216 218 225 244 255 269 306 325 3 31 264 226 199 176 163 186 185 182 185 191 200 204 205 202 201 203 207 214 225 234 232 224 225 233 243 255 267 272 271 270 267
199 201 200 201 202 209 218 231 211 155 125 117 113 126 132 138 145 135 134 129 143 148 154 163 169 172 177 188 202 213 216 215 216 221 230 243 259 270 273 275 276 274 269 262
196 197 194 194 185 196 206 201 166 144 133 122 113 111 112 118 126 134 135 139 141 143 145 148 153 162 171 176 183 192 203 217 232 248 260 266 272 277 279 278 275 270 263 252